QPF
0.00 0.00 0.00 0.00 0.00 0.00 0.00 0.00 0.00 0.00 0.00 0.01 0.01 0.02 0.01 0.00 0.01 0.03 0.05 0.01 0.00 0.00 0.00 0.00 0.00 0.00 0.00 0.00 0.00 0.00 0.00 0.00 0.00 0.01 0.01 0.02 0.01 0.02 0.02 0.02 0.03 0.02 0.00
0.00 0.00 0.00 0.00 0.00 0.00 0.00 0.00 0.00 0.00 0.00 0.00 0.00 0.00 0.00 0.01 0.07 0.13 0.17 0.08 0.01 0.00 0.00 0.00 0.00 0.00 0.00 0.00 0.00 0.00 0.01 0.01 0.00 0.00 0.01 0.01 0.01 0.01 0.01 0.01 0.01 0.00 0.00
0.00 0.00 0.00 0.00 0.00 0.00 0.00 0.00 0.00 0.00 0.00 0.00 0.00 0.00 0.04 0.09 0.16 0.24 0.22 0.14 0.05 0.01 0.00 0.00 0.00 0.00 0.00 0.00 0.01 0.02 0.03 0.02 0.02 0.00 0.01 0.00 0.00 0.01 0.00 0.00 0.00 0.00 0.00
0.00 0.00 0.00 0.00 0.00 0.00 0.00 0.00 0.00 0.00 0.00 0.00 0.00 0.00 0.00 0.00 0.00 0.01 0.03 0.07 0.06 0.04 0.01 0.00 0.00 0.00 0.00 0.00 0.01 0.02 0.04 0.06 0.04 0.03 0.00 0.00 0.00 0.00 0.00 0.00 0.00 0.00 0.00
0.00 0.00 0.00 0.00 0.00 0.00 0.00 0.00 0.00 0.00 0.00 0.00 0.00 0.00 0.00 0.00 0.00 0.00 0.02 0.03 0.01 0.02 0.02 0.01 0.00 0.01 0.00 0.00 0.02 0.02 0.02 0.03 0.05 0.02 0.01 0.00 0.00 0.00 0.00 0.00 0.00 0.00 0.00
0.00 0.00 0.00 0.00 0.00 0.00 0.00 0.00 0.00 0.00 0.00 0.00 0.00 0.00 0.00 0.00 0.00 0.00 0.01 0.00 0.00 0.00 0.00 0.00 0.00 0.00 0.01 0.01 0.01 0.02 0.02 0.03 0.03 0.04 0.01 0.00 0.00 0.00 0.00 0.00 0.00 0.00 0.00
0.00 0.00 0.00 0.00 0.00 0.00 0.00 0.00 0.00 0.00 0.00 0.00 0.00 0.00 0.00 0.01 0.01 0.00 0.00 0.00 0.00 0.00 0.00 0.00 0.00 0.00 0.01 0.01 0.01 0.01 0.02 0.02 0.02 0.02 0.02 0.02 0.00 0.00 0.00 0.00 0.00 0.00 0.00
0.00 0.00 0.00 0.00 0.01 0.01 0.00 0.01 0.02 0.02 0.01 0.00 0.00 0.03 0.09 0.12 0.11 0.08 0.04 0.01 0.00 0.00 0.00 0.00 0.00 0.00 0.01 0.01 0.01 0.01 0.01 0.02 0.01 0.01 0.01 0.01 0.00 0.00 0.00 0.00 0.00 0.00 0.00
0.00 0.00 0.00 0.00 0.01 0.02 0.01 0.02 0.03 0.05 0.05 0.06 0.03 0.04 0.10 0.15 0.15 0.16 0.14 0.04 0.00 0.00 0.00 0.00 0.00 0.00 0.01 0.01 0.01 0.01 0.01 0.02 0.02 0.02 0.02 0.01 0.00 0.00 0.00 0.00 0.00 0.00 0.00
0.00 0.00 0.00 0.00 0.00 0.01 0.02 0.08 0.07 0.07 0.10 0.11 0.09 0.08 0.10 0.10 0.14 0.12 0.06 0.03 0.00 0.00 0.00 0.00 0.00 0.00 0.00 0.00 0.00 0.01 0.01 0.02 0.03 0.04 0.03 0.01 0.00 0.00 0.00 0.00 0.00 0.00 0.00
0.00 0.00 0.00 0.00 0.00 0.00 0.02 0.05 0.10 0.12 0.12 0.08 0.16 0.11 0.08 0.10 0.11 0.14 0.10 0.06 0.01 0.00 0.00 0.00 0.00 0.00 0.00 0.00 0.00 0.00 0.00 0.01 0.01 0.01 0.01 0.01 0.00 0.00 0.00 0.00 0.00 0.00 0.00
0.00 0.00 0.00 0.00 0.00 0.01 0.01 0.04 0.09 0.15 0.03 0.03 0.08 0.07 0.05 0.12 0.08 0.11 0.07 0.02 0.00 0.00 0.00 0.00 0.00 0.00 0.00 0.00 0.00 0.00 0.00 0.00 0.00 0.00 0.00 0.00 0.00 0.00 0.00 0.00 0.00 0.00 0.00
0.00 0.00 0.00 0.00 0.00 0.02 0.03 0.03 0.03 0.10 0.09 0.08 0.06 0.08 0.10 0.13 0.07 0.05 0.02 0.00 0.00 0.01 0.00 0.00 0.00 0.00 0.00 0.00 0.00 0.00 0.00 0.00 0.00 0.00 0.00 0.00 0.00 0.00 0.00 0.00 0.00 0.00 0.00
0.00 0.00 0.00 0.00 0.00 0.00 0.00 0.01 0.01 0.01 0.01 0.04 0.04 0.02 0.06 0.11 0.07 0.02 0.00 0.00 0.00 0.00 0.00 0.00 0.00 0.00 0.00 0.00 0.00 0.00 0.00 0.00 0.00 0.01 0.00 0.00 0.00 0.00 0.00 0.00 0.00 0.00 0.00
0.00 0.00 0.00 0.00 0.00 0.00 0.00 0.00 0.00 0.00 0.00 0.00 0.00 0.00 0.02 0.04 0.05 0.03 0.00 0.00 0.00 0.00 0.00 0.00 0.00 0.00 0.00 0.00 0.00 0.00 0.00 0.00 0.00 0.00 0.00 0.00 0.00 0.00 0.00 0.00 0.00 0.00 0.00
0.00 0.00 0.00 0.00 0.00 0.00 0.00 0.00 0.00 0.00 0.00 0.00 0.00 0.00 0.00 0.01 0.01 0.01 0.00 0.00 0.00 0.00 0.00 0.00 0.00 0.00 0.00 0.00 0.00 0.00 0.00 0.00 0.00 0.00 0.00 0.00 0.00 0.00 0.00 0.00 0.00 0.00 0.00
0.00 0.00 0.00 0.00 0.00 0.00 0.00 0.00 0.00 0.00 0.00 0.00 0.00 0.00 0.00 0.00 0.01 0.01 0.00 0.00 0.00 0.00 0.00 0.00 0.00 0.00 0.00 0.00 0.00 0.00 0.00 0.00 0.00 0.00 0.00 0.00 0.00 0.00 0.00 0.00 0.00 0.00 0.00
0.00 0.00 0.00 0.00 0.00 0.00 0.00 0.00 0.00 0.00 0.00 0.00 0.00 0.00 0.00 0.00 0.00 0.01 0.01 0.00 0.00 0.00 0.00 0.00 0.00 0.00 0.00 0.00 0.00 0.00 0.00 0.00 0.00 0.00 0.00 0.00 0.00 0.00 0.00 0.00 0.00 0.00 0.00
0.00 0.00 0.00 0.00 0.00 0.00 0.00 0.00 0.00 0.00 0.00 0.00 0.00 0.00 0.00 0.00 0.00 0.00 0.00 0.00 0.00 0.00 0.00 0.00 0.00 0.00 0.00 0.00 0.00 0.00 0.00 0.00 0.00 0.00 0.00 0.00 0.00 0.00 0.00 0.00 0.00 0.00 0.00
0.00 0.00 0.00 0.00 0.00 0.00 0.00 0.00 0.00 0.00 0.00 0.00 0.00 0.00 0.00 0.00 0.00 0.00 0.00 0.00 0.00 0.00 0.00 0.00 0.00 0.00 0.00 0.00 0.00 0.00 0.00 0.00 0.00 0.00 0.00 0.00 0.00 0.00 0.00 0.00 0.00 0.00 0.00
0.00 0.00 0.00 0.00 0.00 0.00 0.00 0.00 0.00 0.00 0.00 0.00 0.00 0.00 0.00 0.00 0.00 0.00 0.00 0.00 0.00 0.00 0.00 0.00 0.00 0.00 0.00 0.00 0.00 0.00 0.00 0.00 0.00 0.00 0.00 0.00 0.00 0.00 0.00 0.00 0.00 0.00 0.00
0.00 0.00 0.00 0.00 0.00 0.00 0.00 0.00 0.00 0.00 0.00 0.00 0.00 0.00 0.00 0.00 0.00 0.00 0.00 0.00 0.00 0.00 0.00 0.00 0.00 0.00 0.00 0.00 0.00 0.00 0.00 0.00 0.00 0.00 0.00 0.00 0.00 0.00 0.00 0.00 0.00 0.00 0.00
0.00 0.00 0.00 0.00 0.00 0.00 0.00 0.00 0.00 0.00 0.00 0.00 0.00 0.00 0.00 0.00 0.00 0.00 0.00 0.00 0.00 0.00 0.00 0.00 0.00 0.00 0.00 0.00 0.00 0.00 0.00 0.00 0.00 0.00 0.00 0.00 0.00 0.00 0.00 0.00 0.00 0.00 0.00
0.00 0.00 0.00 0.00 0.00 0.00 0.00 0.00 0.00 0.00 0.00 0.00 0.00 0.00 0.00 0.00 0.00 0.00 0.00 0.00 0.00 0.00 0.00 0.00 0.00 0.00 0.00 0.00 0.00 0.00 0.00 0.00 0.00 0.00 0.00 0.00 0.00 0.00 0.00 0.00 0.00 0.00 0.00
0.00 0.00 0.00 0.00 0.00 0.00 0.00 0.00 0.00 0.00 0.00 0.00 0.00 0.00 0.00 0.00 0.00 0.00 0.00 0.00 0.00 0.00 0.00 0.00 0.00 0.00 0.00 0.00 0.00 0.00 0.00 0.00 0.00 0.00 0.00 0.00 0.00 0.00 0.00 0.00 0.00 0.00 0.00
0.00 0.00 0.00 0.00 0.00 0.00 0.00 0.00 0.00 0.00 0.00 0.00 0.00 0.00 0.00 0.00 0.00 0.00 0.00 0.00 0.00 0.00 0.00 0.00 0.00 0.00 0.00 0.00 0.00 0.00 0.00 0.00 0.00 0.00 0.00 0.00 0.00 0.00 0.00 0.00 0.00 0.00 0.00
MSLP
1007.27 1007.09 1006.68 1005.71 1005.22 1004.59 1003.72 1002.84 1002.30 1001.92 1002.23 1002.79 1003.50 1004.07 1004.50 1004.78 1005.54 1005.74 1006.48 1007.06 1007.78 1008.36 1008.96 1009.71 1010.35 1011.02 1011.42 1011.80 1012.21 1012.73 1013.13 1013.90 1014.33 1014.89 1015.70 1016.18 1016.33 1016.36 1016.50 1016.70 1017.21 1017.30 1017.65
1007.54 1007.19 1006.84 1006.01 1005.43 1004.88 1003.97 1003.21 1002.24 1001.34 1001.12 1001.43 1002.19 1002.94 1003.32 1004.08 1004.52 1005.40 1006.38 1006.03 1006.88 1007.53 1008.34 1009.11 1009.81 1010.45 1011.05 1011.60 1011.86 1012.23 1012.76 1013.43 1013.86 1014.35 1015.19 1016.00 1016.47 1016.43 1016.54 1016.80 1017.13 1017.49 1017.70
1008.08 1007.48 1006.69 1006.19 1005.08 1004.78 1004.08 1003.18 1002.34 1001.12 1000.29 1000.50 1001.46 1002.38 1003.00 1004.08 1004.79 1005.35 1005.47 1006.20 1006.10 1006.47 1007.55 1008.60 1009.30 1009.79 1010.52 1010.95 1011.29 1011.70 1012.22 1012.77 1013.26 1013.56 1014.18 1015.24 1015.54 1016.17 1016.60 1016.53 1016.77 1017.20 1017.75
1008.21 1008.01 1007.01 1006.23 1005.40 1004.41 1003.72 1002.83 1001.74 1000.90 999.75 1000.03 1000.61 1001.11 1001.27 1002.44 1003.10 1003.74 1004.63 1005.86 1005.74 1006.17 1006.78 1008.26 1008.76 1009.23 1009.74 1010.20 1010.65 1011.26 1011.78 1012.24 1012.60 1013.19 1013.36 1013.57 1014.14 1015.46 1016.50 1016.64 1016.66 1016.89 1017.53
1008.93 1008.10 1007.43 1006.64 1005.71 1004.37 1003.71 1002.42 1001.20 1000.00 999.12 999.11 999.58 1000.27 1000.71 1001.40 1002.24 1002.93 1002.55 1004.50 1006.04 1005.08 1006.62 1007.86 1008.31 1008.62 1009.06 1009.59 1010.04 1010.70 1011.25 1011.68 1012.12 1012.20 1012.98 1013.50 1014.09 1014.43 1014.94 1015.74 1016.21 1016.99 1017.08
1008.82 1008.35 1007.72 1006.95 1005.99 1004.75 1003.59 1002.33 1000.85 999.14 998.61 998.67 999.16 999.69 1000.14 1001.16 1001.79 1002.44 1003.00 1003.59 1004.32 1005.24 1006.57 1007.30 1007.69 1008.07 1008.48 1008.99 1009.48 1010.08 1010.70 1011.16 1011.61 1011.84 1012.11 1012.47 1013.15 1013.73 1014.14 1014.87 1015.66 1016.35 1016.93
1009.32 1008.20 1007.77 1007.00 1006.06 1004.83 1003.58 1002.48 1001.04 999.49 998.45 998.47 999.02 999.29 999.98 1000.68 1001.12 1001.41 1002.31 1003.47 1004.08 1004.96 1005.83 1006.34 1007.13 1007.50 1008.00 1008.51 1009.00 1009.51 1010.11 1010.60 1010.97 1011.27 1011.53 1011.94 1012.30 1012.71 1013.14 1014.15 1014.75 1015.67 1016.71
1010.10 1008.18 1008.31 1007.57 1006.61 1005.26 1004.11 1002.74 1001.44 1000.03 998.23 998.43 998.92 999.36 999.90 1000.50 1001.13 1001.98 1001.91 1002.61 1003.28 1004.13 1005.03 1006.00 1006.65 1007.12 1007.68 1008.21 1008.58 1009.06 1009.48 1010.06 1010.48 1010.75 1011.12 1011.57 1011.83 1012.22 1012.51 1013.26 1013.96 1015.04 1016.02
1010.41 1008.97 1008.39 1007.85 1006.86 1005.76 1004.69 1003.57 1002.23 1000.20 998.47 998.37 998.79 999.29 999.90 1000.40 1001.00 1001.74 1002.44 1002.72 1002.76 1003.59 1004.62 1005.71 1006.38 1006.90 1007.36 1007.71 1008.16 1008.49 1009.01 1009.46 1009.76 1010.13 1010.51 1010.89 1011.30 1011.76 1012.22 1012.46 1013.00 1013.36 1014.84
1010.74 1009.79 1009.22 1008.76 1007.82 1006.57 1005.21 1004.12 1002.86 1000.93 998.66 998.74 999.17 999.37 999.99 1000.40 1000.97 1001.20 1002.43 1002.67 1002.73 1003.53 1004.61 1005.63 1006.30 1006.69 1006.94 1007.34 1007.73 1008.11 1008.58 1008.87 1009.13 1009.37 1009.76 1010.18 1010.64 1011.27 1011.78 1012.07 1012.81 1013.16 1013.95
1011.62 1010.85 1010.25 1009.45 1008.70 1007.67 1006.43 1004.94 1003.11 1001.76 1000.44 999.32 999.63 999.55 1000.17 1000.57 1001.09 1001.72 1002.77 1002.87 1003.17 1003.84 1004.72 1005.46 1005.92 1006.41 1006.88 1007.20 1007.45 1007.88 1008.24 1008.50 1008.63 1008.67 1008.98 1009.34 1009.86 1010.26 1011.21 1011.88 1012.56 1013.10 1013.75
1012.06 1011.35 1010.88 1010.13 1008.99 1008.10 1007.02 1005.85 1004.33 1003.08 1001.56 1000.70 1000.09 1000.02 1000.26 1000.36 999.89 1002.58 1002.82 1003.22 1003.01 1003.89 1004.92 1005.33 1005.78 1006.33 1006.79 1007.11 1007.38 1007.76 1007.91 1008.10 1008.08 1008.00 1008.30 1008.32 1008.91 1009.67 1010.33 1011.35 1012.02 1012.83 1013.51
1012.22 1011.92 1011.43 1010.78 1009.79 1008.75 1007.78 1006.90 1005.90 1004.54 1003.50 1002.11 1001.06 1000.68 999.82 1000.62 1000.84 1002.17 1002.44 1002.93 1003.53 1004.44 1005.17 1005.43 1005.95 1006.31 1006.53 1006.66 1007.10 1007.28 1007.43 1007.51 1007.40 1007.12 1007.26 1007.66 1008.45 1009.00 1009.89 1010.81 1011.53 1012.44 1013.17
1013.42 1012.87 1012.11 1011.54 1010.92 1010.26 1009.35 1008.29 1007.05 1005.91 1004.82 1003.91 1002.74 1002.55 1002.36 1001.33 1001.78 1002.25 1002.49 1003.10 1003.67 1004.50 1005.20 1005.79 1006.44 1006.90 1006.91 1006.68 1006.94 1006.95 1007.01 1007.13 1007.09 1006.86 1007.03 1007.41 1007.90 1008.58 1009.43 1010.33 1011.05 1012.00 1012.93
1014.19 1013.80 1013.15 1012.64 1012.09 1011.25 1010.54 1009.61 1008.67 1007.20 1006.33 1005.03 1004.29 1004.32 1003.93 1002.80 1002.79 1002.33 1002.89 1003.77 1004.50 1005.16 1005.86 1006.45 1007.20 1007.58 1007.54 1007.67 1007.53 1007.08 1006.93 1007.27 1007.66 1007.99 1008.26 1008.20 1007.82 1008.44 1009.04 1009.80 1010.73 1011.64 1012.55
1015.28 1014.81 1014.16 1013.62 1012.99 1012.41 1011.59 1010.68 1009.67 1008.60 1007.50 1006.58 1006.42 1005.98 1005.05 1004.94 1004.69 1003.98 1003.84 1004.60 1005.91 1006.31 1006.61 1007.41 1007.83 1008.39 1008.59 1008.41 1007.65 1007.25 1007.59 1007.98 1008.40 1008.82 1009.18 1009.41 1009.56 1009.29 1009.92 1010.43 1011.18 1011.86 1012.54
1015.95 1015.61 1015.13 1014.64 1014.16 1013.66 1013.00 1012.00 1011.09 1009.97 1009.09 1008.40 1007.81 1007.43 1006.66 1006.77 1006.13 1006.35 1005.82 1006.23 1007.16 1007.46 1007.68 1008.37 1008.89 1009.22 1009.41 1008.91 1008.64 1008.48 1008.84 1009.34 1009.65 1009.92 1010.25 1010.54 1011.07 1010.60 1011.05 1011.92 1012.36 1012.96 1013.39
1016.81 1016.55 1016.14 1015.54 1015.10 1014.54 1014.00 1013.33 1012.30 1011.48 1010.67 1009.94 1009.02 1008.38 1007.90 1007.85 1007.07 1009.07 1007.95 1008.14 1008.12 1008.50 1008.98 1009.64 1009.88 1009.79 1010.08 1009.86 1009.52 1009.67 1010.09 1010.60 1011.03 1011.26 1011.52 1011.66 1012.00 1011.95 1012.11 1012.74 1013.45 1014.46 1015.07
1017.49 1017.33 1016.88 1016.50 1016.03 1015.50 1015.01 1014.26 1013.49 1012.97 1012.33 1011.69 1011.09 1010.52 1009.82 1009.97 1009.94 1009.09 1009.55 1009.56 1009.61 1009.90 1010.28 1010.83 1010.89 1010.80 1010.83 1010.75 1010.61 1010.62 1011.08 1011.78 1012.30 1012.65 1012.78 1012.96 1013.10 1013.33 1013.29 1013.59 1014.74 1016.12 1016.91
1018.43 1018.05 1017.70 1017.16 1016.68 1016.31 1015.98 1015.42 1014.78 1014.49 1014.17 1013.67 1013.04 1012.53 1011.91 1011.38 1010.30 1011.11 1011.43 1011.02 1011.32 1011.40 1011.64 1011.92 1011.85 1012.19 1011.99 1011.78 1011.53 1011.79 1012.16 1012.67 1013.31 1013.89 1014.07 1014.37 1014.44 1014.62 1014.75 1014.68 1015.35 1016.29 1017.78
1019.20 1018.82 1018.44 1018.11 1017.81 1017.44 1017.11 1016.68 1016.36 1015.76 1015.75 1015.30 1014.81 1014.12 1013.64 1013.32 1013.02 1012.72 1012.46 1012.79 1012.41 1012.65 1013.10 1012.97 1013.14 1013.18 1013.22 1013.23 1012.87 1012.94 1013.21 1013.71 1014.48 1014.92 1015.34 1015.71 1015.79 1016.06 1016.08 1015.95 1016.57 1017.37 1018.39
1020.12 1019.83 1019.48 1019.13 1018.76 1018.33 1017.90 1017.57 1017.25 1017.41 1016.89 1016.32 1015.90 1015.56 1015.15 1014.80 1014.71 1014.31 1014.46 1014.29 1013.80 1013.98 1014.54 1014.42 1014.26 1014.62 1014.75 1014.93 1014.41 1014.48 1014.62 1015.26 1015.24 1015.93 1016.93 1016.97 1017.01 1017.52 1017.96 1017.64 1018.50 1018.74 1019.29
1021.27 1021.00 1020.62 1020.25 1019.75 1019.15 1018.73 1018.44 1018.29 1017.95 1017.61 1017.23 1016.92 1016.65 1016.33 1016.06 1015.88 1015.42 1015.46 1015.26 1015.37 1015.63 1015.76 1015.74 1015.86 1016.07 1016.27 1016.70 1016.22 1016.31 1016.48 1016.91 1017.12 1017.54 1018.18 1018.26 1018.16 1018.95 1019.54 1019.68 1020.02 1020.02 1020.37
1022.22 1021.91 1021.53 1021.38 1021.00 1020.51 1020.00 1019.54 1019.24 1018.88 1018.36 1018.36 1018.40 1018.30 1017.97 1017.75 1017.33 1017.13 1017.05 1016.67 1016.84 1017.01 1017.19 1017.32 1017.37 1017.47 1017.46 1017.77 1017.79 1017.85 1018.09 1018.84 1018.76 1019.29 1019.43 1019.46 1019.80 1020.16 1020.74 1021.06 1021.42 1021.57 1022.05
1023.26 1022.98 1022.81 1022.66 1022.34 1021.82 1021.33 1020.80 1020.12 1019.63 1019.51 1019.65 1019.72 1019.78 1019.43 1019.15 1018.74 1018.52 1018.62 1018.16 1018.19 1018.32 1018.46 1018.51 1018.56 1018.38 1018.49 1018.88 1018.91 1019.13 1019.45 1020.13 1020.16 1020.29 1020.54 1020.72 1020.96 1021.51 1022.20 1022.47 1022.74 1023.20 1023.44
1024.13 1023.96 1023.92 1023.71 1023.44 1022.93 1022.35 1021.77 1021.16 1020.68 1020.42 1020.58 1020.69 1020.78 1020.56 1020.48 1020.16 1020.12 1020.03 1019.63 1019.61 1019.63 1019.47 1019.67 1019.38 1019.46 1019.49 1019.94 1019.87 1020.32 1020.62 1020.88 1021.21 1021.52 1022.07 1022.41 1022.68 1023.07 1023.65 1024.07 1024.35 1024.67 1024.74
Thickness
5608 5607 5608 5615 5620 5621 5628 5637 5643 5655 5657 5656 5652 5655 5659 5661 5659 5663 5659 5658 5652 5650 5649 5643 5639 5636 5634 5631 5629 5625 5623 5618 5617 5613 5608 5608 5609 5612 5615 5614 5615 5617 5617
5595 5595 5594 5597 5600 5606 5613 5621 5635 5648 5654 5655 5655 5652 5658 5656 5657 5653 5649 5655 5652 5649 5647 5641 5638 5634 5630 5626 5625 5622 5618 5615 5614 5611 5606 5604 5605 5607 5610 5609 5610 5611 5612
5579 5579 5582 5584 5592 5593 5599 5609 5618 5637 5649 5653 5650 5645 5647 5644 5640 5642 5646 5644 5649 5649 5643 5639 5637 5633 5628 5625 5624 5621 5617 5613 5611 5612 5608 5601 5606 5605 5602 5607 5607 5607 5606
5562 5557 5565 5572 5577 5585 5590 5601 5613 5625 5644 5646 5646 5646 5653 5649 5651 5649 5646 5633 5627 5642 5641 5634 5634 5632 5627 5625 5623 5619 5615 5612 5610 5609 5610 5612 5612 5603 5597 5597 5599 5602 5602
5540 5544 5549 5555 5562 5574 5580 5595 5610 5626 5641 5646 5647 5645 5647 5650 5649 5646 5654 5632 5625 5648 5635 5630 5630 5629 5627 5624 5621 5616 5613 5610 5607 5610 5605 5604 5603 5605 5604 5600 5597 5594 5599
5535 5536 5538 5541 5547 5559 5572 5587 5606 5627 5639 5645 5645 5644 5645 5642 5644 5645 5645 5645 5640 5635 5630 5628 5628 5627 5625 5622 5619 5616 5612 5608 5606 5606 5607 5606 5602 5603 5602 5598 5596 5596 5591
5521 5528 5530 5534 5541 5552 5564 5578 5596 5618 5634 5640 5639 5641 5640 5641 5643 5648 5642 5637 5636 5634 5631 5630 5625 5624 5622 5620 5617 5614 5610 5606 5604 5603 5603 5601 5602 5604 5604 5597 5594 5588 5582
5506 5521 5519 5524 5532 5543 5554 5569 5586 5604 5631 5633 5634 5636 5635 5635 5635 5633 5641 5640 5639 5636 5632 5626 5622 5621 5618 5616 5614 5612 5609 5604 5601 5600 5598 5596 5597 5599 5599 5596 5592 5584 5581
5499 5510 5512 5516 5523 5533 5545 5558 5574 5598 5621 5626 5629 5629 5627 5629 5632 5631 5626 5629 5637 5634 5628 5621 5618 5616 5614 5613 5612 5610 5606 5603 5600 5597 5594 5593 5593 5593 5595 5595 5593 5594 5585
5492 5499 5502 5504 5511 5522 5537 5550 5564 5586 5616 5619 5620 5621 5622 5624 5625 5627 5620 5623 5629 5628 5621 5615 5613 5611 5611 5610 5608 5607 5603 5600 5598 5594 5592 5591 5591 5589 5590 5591 5588 5589 5587
5481 5486 5490 5496 5501 5511 5524 5540 5560 5575 5592 5609 5609 5615 5616 5616 5614 5617 5612 5615 5620 5618 5614 5611 5609 5607 5605 5604 5604 5602 5599 5596 5593 5591 5590 5589 5589 5591 5589 5586 5584 5583 5581
5475 5480 5482 5487 5496 5505 5517 5529 5544 5558 5575 5589 5603 5609 5612 5610 5616 5601 5604 5606 5614 5610 5605 5606 5604 5602 5600 5599 5599 5597 5595 5591 5588 5589 5587 5590 5589 5590 5589 5584 5582 5579 5576
5470 5473 5475 5480 5489 5497 5506 5517 5527 5540 5553 5571 5588 5596 5606 5605 5607 5599 5601 5602 5602 5598 5597 5598 5596 5596 5597 5598 5596 5595 5593 5589 5587 5588 5590 5590 5588 5589 5585 5583 5581 5576 5572
5457 5461 5466 5471 5477 5483 5489 5501 5514 5525 5538 5549 5563 5568 5573 5594 5594 5593 5595 5594 5595 5592 5590 5588 5584 5583 5586 5591 5591 5592 5591 5588 5585 5588 5589 5590 5589 5588 5583 5581 5579 5575 5570
5446 5449 5455 5458 5462 5470 5476 5485 5495 5506 5521 5536 5543 5544 5547 5563 5573 5583 5581 5579 5580 5579 5577 5575 5571 5571 5574 5575 5579 5584 5588 5582 5575 5570 5572 5577 5585 5583 5582 5581 5577 5572 5569
5432 5437 5443 5447 5452 5456 5464 5473 5483 5495 5507 5518 5521 5526 5534 5538 5546 5557 5567 5567 5560 5561 5562 5560 5561 5559 5559 5562 5571 5577 5574 5570 5566 5561 5560 5561 5563 5567 5565 5565 5561 5561 5566
5422 5427 5430 5435 5440 5443 5448 5458 5467 5479 5489 5498 5506 5510 5519 5518 5525 5531 5537 5545 5543 5545 5548 5547 5547 5547 5547 5553 5557 5560 5558 5554 5552 5551 5550 5548 5546 5552 5552 5548 5547 5544 5543
5410 5415 5419 5426 5430 5434 5438 5444 5453 5463 5473 5482 5491 5498 5504 5505 5515 5501 5514 5519 5527 5529 5530 5530 5533 5536 5536 5540 5544 5544 5543 5539 5536 5536 5537 5537 5535 5538 5539 5537 5533 5526 5524
5402 5405 5411 5415 5419 5424 5428 5435 5441 5446 5454 5462 5469 5477 5486 5486 5490 5501 5501 5501 5507 5510 5513 5513 5517 5521 5523 5526 5528 5530 5528 5524 5521 5520 5520 5521 5522 5523 5526 5524 5516 5507 5502
5391 5395 5399 5406 5411 5414 5417 5423 5428 5431 5434 5441 5449 5456 5465 5473 5483 5480 5480 5484 5489 5492 5494 5496 5500 5500 5505 5510 5513 5512 5512 5511 5507 5504 5504 5502 5504 5504 5506 5507 5504 5498 5487
5383 5387 5391 5394 5397 5401 5404 5408 5412 5418 5418 5423 5429 5439 5447 5452 5456 5460 5465 5466 5474 5475 5475 5479 5480 5483 5486 5488 5493 5495 5494 5492 5488 5487 5486 5484 5485 5485 5485 5488 5484 5479 5472
5374 5376 5380 5383 5388 5391 5395 5398 5401 5401 5406 5411 5415 5420 5426 5431 5435 5441 5440 5444 5453 5454 5450 5456 5461 5460 5461 5463 5470 5470 5472 5468 5469 5467 5461 5462 5464 5461 5459 5463 5458 5457 5453
5361 5365 5368 5371 5376 5382 5386 5387 5388 5392 5396 5400 5403 5406 5410 5413 5417 5422 5424 5429 5430 5430 5430 5434 5436 5437 5436 5435 5442 5443 5443 5440 5441 5440 5438 5439 5441 5436 5434 5435 5433 5433 5432
5350 5354 5358 5360 5362 5366 5370 5374 5376 5379 5384 5384 5384 5385 5390 5391 5396 5399 5402 5408 5408 5408 5408 5409 5412 5412 5414 5414 5416 5416 5417 5412 5414 5412 5412 5414 5413 5412 5408 5408 5406 5406 5403
5338 5341 5342 5344 5348 5352 5355 5358 5363 5367 5368 5366 5365 5365 5369 5372 5377 5379 5379 5384 5383 5384 5383 5384 5385 5389 5391 5390 5391 5391 5390 5386 5388 5390 5390 5390 5389 5386 5381 5380 5379 5377 5376
5328 5329 5330 5331 5333 5338 5343 5346 5350 5353 5356 5354 5352 5350 5352 5353 5356 5357 5357 5361 5361 5360 5362 5360 5364 5366 5367 5365 5367 5365 5365 5364 5363 5363 5361 5360 5360 5357 5354 5352 5351 5349 5349